When you browse on this site, cookies collect data to enhance your experience and personalize the content and advertising you see.
Visit our Privacy Policy to learn more. By continuing to use the site, you agree to this use of cookies and data.
  • In Austria
  • List of Countries
  • For 7 days
  • Water Temperature
  • Weather Map
  • News
  • Weather Widgets
  • user-avatar
    Login

    Hourly Weather Tamarac

    Today, 9 December, Monday

    Time Temperature Precipitation Wind Pressure Humidity
    00:00 +24°C° 0 mm 2 mps 764 mmHg 67%
    01:00 +24°C° 0 mm 2 mps 764 mmHg 69%
    02:00 +24°C° 0 mm 2 mps 764 mmHg 69%
    03:00 +24°C° 0 mm 2 mps 764 mmHg 69%
    04:00 +24°C° 0 mm 2 mps 763 mmHg 69%
    05:00 +24°C° 0 mm 2 mps 764 mmHg 70%
    06:00 +23°C° 0 mm 2 mps 764 mmHg 70%
    07:00 +23°C° 0 mm 1 mps 764 mmHg 80%
    08:00 +25°C° 0 mm 2 mps 764 mmHg 75%
    09:00 +26°C° 0 mm 2 mps 764 mmHg 70%
    10:00 +27°C° 0 mm 3 mps 764 mmHg 65%
    11:00 +28°C° 0 mm 3 mps 764 mmHg 64%
    12:00 +28°C° 0 mm 4 mps 764 mmHg 63%
    13:00 +29°C° 0 mm 4 mps 763 mmHg 62%
    14:00 +28°C° 0.1 mm 4 mps 763 mmHg 63%
    15:00 +28°C° 0.1 mm 4 mps 762 mmHg 65%
    16:00 +28°C° 0.1 mm 4 mps 762 mmHg 66%
    17:00 +27°C° 0 mm 4 mps 763 mmHg 69%
    18:00 +27°C° 0 mm 4 mps 763 mmHg 71%
    19:00 +27°C° 0 mm 3 mps 764 mmHg 74%
    20:00 +26°C° 0.2 mm 4 mps 764 mmHg 74%
    21:00 +26°C° 0.2 mm 4 mps 764 mmHg 75%
    22:00 +26°C° 0.2 mm 4 mps 764 mmHg 76%
    23:00 +26°C° 0.1 mm 4 mps 764 mmHg 77%

    Tomorrow, 10 December, Tuesday

    Time Temperature Precipitation Wind Pressure Humidity
    00:00 +26°C° 0.1 mm 4 mps 764 mmHg 77%
    01:00 +26°C° 0.1 mm 3 mps 764 mmHg 77%
    02:00 +26°C° 0.2 mm 3 mps 764 mmHg 79%
    03:00 +26°C° 0.2 mm 3 mps 763 mmHg 80%
    04:00 +26°C° 0.2 mm 3 mps 763 mmHg 81%
    05:00 +26°C° 0.2 mm 3 mps 763 mmHg 82%
    06:00 +26°C° 0.2 mm 3 mps 764 mmHg 84%
    07:00 +26°C° 0.2 mm 3 mps 764 mmHg 85%
    08:00 +27°C° 0 mm 4 mps 764 mmHg 80%
    09:00 +28°C° 0 mm 5 mps 764 mmHg 76%
    10:00 +29°C° 0 mm 5 mps 765 mmHg 71%
    11:00 +29°C° 0.1 mm 5 mps 764 mmHg 69%
    12:00 +30°C° 0.1 mm 5 mps 764 mmHg 66%
    13:00 +30°C° 0.1 mm 6 mps 764 mmHg 64%
    14:00 +30°C° 0 mm 5 mps 763 mmHg 65%
    15:00 +30°C° 0 mm 5 mps 763 mmHg 66%
    16:00 +29°C° 0 mm 5 mps 762 mmHg 67%
    17:00 +29°C° 0 mm 4 mps 763 mmHg 70%
    18:00 +28°C° 0 mm 4 mps 763 mmHg 73%
    19:00 +28°C° 0 mm 4 mps 764 mmHg 77%
    20:00 +27°C° 0.1 mm 3 mps 764 mmHg 78%
    21:00 +27°C° 0.1 mm 3 mps 764 mmHg 80%
    22:00 +27°C° 0.1 mm 3 mps 764 mmHg 82%
    23:00 +27°C° 0.2 mm 3 mps 764 mmHg 82%

    Day after tomorrow, 11 December, Wednesday

    Time Temperature Precipitation Wind Pressure Humidity
    00:00 +27°C° 0.2 mm 3 mps 764 mmHg 83%
    01:00 +27°C° 0.2 mm 3 mps 764 mmHg 83%
    02:00 +26°C° 0.2 mm 3 mps 764 mmHg 84%
    03:00 +26°C° 0.2 mm 3 mps 764 mmHg 84%
    04:00 +26°C° 0.2 mm 2 mps 763 mmHg 85%
    05:00 +26°C° 0.2 mm 2 mps 764 mmHg 85%
    06:00 +26°C° 0.2 mm 2 mps 764 mmHg 85%
    07:00 +26°C° 0.2 mm 2 mps 765 mmHg 86%
    08:00 +27°C° 0.2 mm 2 mps 765 mmHg 80%
    09:00 +28°C° 0.2 mm 3 mps 765 mmHg 74%
    10:00 +29°C° 0.2 mm 3 mps 766 mmHg 68%
    11:00 +29°C° 0.3 mm 3 mps 765 mmHg 65%
    12:00 +30°C° 0.3 mm 3 mps 765 mmHg 63%
    13:00 +30°C° 0.3 mm 3 mps 764 mmHg 60%
    14:00 +30°C° 0.4 mm 3 mps 764 mmHg 60%
    15:00 +30°C° 0.4 mm 3 mps 764 mmHg 61%
    16:00 +30°C° 0.4 mm 3 mps 763 mmHg 61%
    17:00 +29°C° 0.2 mm 3 mps 764 mmHg 64%
    18:00 +28°C° 0.2 mm 3 mps 764 mmHg 67%
    19:00 +28°C° 0.2 mm 3 mps 765 mmHg 70%
    20:00 +27°C° 0.3 mm 3 mps 765 mmHg 70%
    21:00 +27°C° 0.3 mm 3 mps 765 mmHg 71%
    22:00 +27°C° 0.3 mm 3 mps 765 mmHg 72%
    23:00 +27°C° 0.1 mm 3 mps 765 mmHg 73%

    12 December, Thursday

    Time Temperature Precipitation Wind Pressure Humidity
    00:00 +27°C° 0.1 mm 3 mps 765 mmHg 75%
    01:00 +26°C° 0.1 mm 3 mps 765 mmHg 76%
    02:00 +26°C° 0.4 mm 3 mps 764 mmHg 78%
    03:00 +26°C° 0.4 mm 3 mps 764 mmHg 80%
    04:00 +25°C° 0.4 mm 3 mps 764 mmHg 82%
    05:00 +25°C° 0.6 mm 3 mps 764 mmHg 81%
    06:00 +25°C° 0.6 mm 3 mps 765 mmHg 81%
    07:00 +25°C° 0.6 mm 3 mps 765 mmHg 80%
    08:00 +26°C° 0 mm 4 mps 765 mmHg 76%
    09:00 +27°C° 0 mm 4 mps 766 mmHg 72%
    10:00 +28°C° 0 mm 5 mps 766 mmHg 68%
    11:00 +28°C° 0 mm 5 mps 766 mmHg 65%
    12:00 +29°C° 0 mm 5 mps 765 mmHg 63%
    13:00 +29°C° 0 mm 5 mps 764 mmHg 61%
    14:00 +29°C° 0.1 mm 5 mps 764 mmHg 62%
    15:00 +29°C° 0.1 mm 5 mps 764 mmHg 63%
    16:00 +28°C° 0.1 mm 6 mps 763 mmHg 64%
    17:00 +28°C° 0 mm 6 mps 764 mmHg 66%
    18:00 +27°C° 0 mm 5 mps 764 mmHg 67%
    19:00 +26°C° 0 mm 5 mps 764 mmHg 68%
    20:00 +26°C° 0 mm 5 mps 764 mmHg 69%
    21:00 +26°C° 0 mm 6 mps 764 mmHg 70%
    22:00 +26°C° 0 mm 6 mps 764 mmHg 70%
    23:00 +25°C° 0 mm 5 mps 764 mmHg 71%

    13 December, Friday

    Time Temperature Precipitation Wind Pressure Humidity
    00:00 +25°C° 0 mm 5 mps 764 mmHg 71%
    01:00 +25°C° 0 mm 5 mps 763 mmHg 72%
    02:00 +25°C° 0 mm 4 mps 763 mmHg 73%
    03:00 +25°C° 0 mm 4 mps 762 mmHg 74%
    04:00 +25°C° 0 mm 4 mps 762 mmHg 74%
    05:00 +25°C° 0 mm 4 mps 762 mmHg 76%
    06:00 +25°C° 0 mm 4 mps 762 mmHg 77%
    07:00 +25°C° 0 mm 4 mps 762 mmHg 78%
    08:00 +26°C° 0 mm 4 mps 762 mmHg 74%
    09:00 +27°C° 0 mm 5 mps 762 mmHg 70%
    10:00 +28°C° 0 mm 5 mps 762 mmHg 66%
    11:00 +28°C° 0 mm 5 mps 761 mmHg 64%
    12:00 +29°C° 0 mm 5 mps 761 mmHg 61%
    13:00 +30°C° 0 mm 5 mps 760 mmHg 58%
    14:00 +29°C° 0.2 mm 5 mps 759 mmHg 60%
    15:00 +29°C° 0.2 mm 5 mps 759 mmHg 62%
    16:00 +28°C° 0.2 mm 5 mps 758 mmHg 64%
    17:00 +28°C° 0.6 mm 4 mps 759 mmHg 67%
    18:00 +27°C° 0.6 mm 4 mps 759 mmHg 70%
    19:00 +27°C° 0.6 mm 3 mps 759 mmHg 73%
    20:00 +26°C° 1 mm 3 mps 759 mmHg 73%
    21:00 +26°C° 1 mm 3 mps 760 mmHg 74%
    22:00 +26°C° 1 mm 2 mps 760 mmHg 74%
    23:00 +26°C° 0.4 mm 2 mps 759 mmHg 75%

    14 December, Saturday

    Time Temperature Precipitation Wind Pressure Humidity
    00:00 +25°C° 0.4 mm 2 mps 759 mmHg 75%
    01:00 +25°C° 0.4 mm 2 mps 759 mmHg 76%
    02:00 +25°C° 0 mm 2 mps 758 mmHg 75%
    03:00 +25°C° 0 mm 3 mps 758 mmHg 75%
    04:00 +25°C° 0 mm 3 mps 757 mmHg 74%
    05:00 +25°C° 0 mm 3 mps 757 mmHg 75%
    06:00 +25°C° 0 mm 2 mps 758 mmHg 75%
    07:00 +25°C° 0 mm 2 mps 758 mmHg 76%
    08:00 +26°C° 0.3 mm 2 mps 758 mmHg 73%
    09:00 +27°C° 0.3 mm 3 mps 758 mmHg 71%
    10:00 +28°C° 0.3 mm 4 mps 759 mmHg 68%
    11:00 +29°C° 0 mm 4 mps 758 mmHg 62%
    12:00 +30°C° 0 mm 4 mps 758 mmHg 56%
    13:00 +32°C° 0 mm 4 mps 757 mmHg 51%
    14:00 +32°C° 0 mm 4 mps 757 mmHg 51%
    15:00 +32°C° 0 mm 4 mps 757 mmHg 52%
    16:00 +30°C° 0 mm 4 mps 756 mmHg 52%
    17:00 +29°C° 0 mm 4 mps 757 mmHg 56%
    18:00 +28°C° 0 mm 4 mps 757 mmHg 61%
    19:00 +27°C° 0 mm 4 mps 758 mmHg 65%
    20:00 +27°C° 0 mm 4 mps 758 mmHg 68%
    21:00 +26°C° 0 mm 3 mps 758 mmHg 71%
    22:00 +25°C° 0 mm 3 mps 759 mmHg 74%
    23:00 +25°C° 0 mm 3 mps 759 mmHg 77%
    Show more